Regional Weather Roundup
Issued by NWS

Home | Current Version | Previous Version | Graphics & Text | Print | Product List | Glossary On
Versions: 1 2 3 4 5 6 7 8 9 10 11 12 13 14 15 16 17 18 19 20 21 22 23 24 25 26 27 28 29 30 31 32 33 34 35 36 37 38 39 40 41 42 43 44 45 46 47 48 49 50
000
ASUS44 KMEG 291410
RWRTN
TENNESSEE HOURLY STATE WEATHER ROUNDUP
NATIONAL WEATHER SERVICE MEMPHIS TN
800 AM CST THU JAN 29 2015

TNZ002-004-019-021-049-052-054-088>092-291500-
WEST TENNESSEE

CITY           SKY/WX    TMP DP  RH WIND       PRES   REMARKS
MEMPHIS INTL   PTSUNNY   55  43  63 SW10G25   30.06R
NWS MEMPHIS      N/A     55 N/A N/A MISG        N/A
JACKSON        SUNNY     53  39  59 S14       30.03R
DYERSBURG      CLEAR     55  36  47 SW18G28   30.02R
UNION CITY     SUNNY     52  43  71 SW13      29.97S
PARIS          SUNNY     52  37  58 SW15      29.99R
LEXINGTON      SUNNY     48  36  61 SW13      30.04R
SAVANNAH       MOSUNNY   52  34  50 S14       30.08S
$$

TNZ008-025-027-028-033-062-065-066-291500-
NORTH MIDDLE TENNESSEE

CITY           SKY/WX    TMP DP  RH WIND       PRES   REMARKS
NASHVILLE      CLOUDY    50  34  54 S18G29    30.03S
CLARKSVILLE    MOSUNNY   54  37  52 SW18G33   29.97R
SMYRNA         CLOUDY    48  33  56 SW10G22   30.06F
COOKEVILLE     PTSUNNY   45  34  65 S8        30.08F
CROSSVILLE     LGT RAIN  40  28  62 S9G18     30.13F WCI  34
$$

TNZ061-075-076-078-094-096-097-291500-
SOUTH MIDDLE TENNESSEE

CITY           SKY/WX    TMP DP  RH WIND       PRES   REMARKS
FAYETTEVILLE   CLOUDY    43  32  65 MISG      30.14S
TULLAHOMA      CLOUDY    46  28  49 S13       30.13F
WINCHESTER     CLOUDY    45  32  61 S8        30.16F
MCMINNVILLE    CLOUDY    46  32  57 S9        30.10F
COLUMBIA       MOSUNNY   50  36  57 SW21G36   30.05R
SHELBYVILLE    CLOUDY    46  34  61 S17       30.11F
$$

TNZ017-018-042-046-047-291500-
NORTHEAST TENNESSEE

CITY           SKY/WX    TMP DP  RH WIND       PRES   REMARKS
TRI CITIES     PTSUNNY   29  24  82 CALM      30.18F
ELIZABETHTON   SUNNY     34  23  64 NE5       30.17F WCI  30
$$

TNZ012-013-036-069-073-074-291500-
CENTRAL EAST TENNESSEE

CITY           SKY/WX    TMP DP  RH WIND       PRES   REMARKS
KNOXVILLE      CLOUDY    30  24  78 NE3       30.18F
OAK RIDGE      CLOUDY    38  24  57 W8        30.21S WCI  32
GATLINBURG     SUNNY     27  23  86 CALM      30.18F
MORRISTOWN     SUNNY     30  25  80 CALM      30.18F
$$

TNZ083-085-099-291500-
SOUTHEAST TENNESSEE

CITY           SKY/WX    TMP DP  RH WIND       PRES   REMARKS
CHATTANOOGA    CLOUDY    38  29  70 SW5       30.25R WCI  34
$$

SKY/WX REPORTED AS FAIR MEANS FEW OR NO CLOUDS BELOW
12 THOUSAND FEET.



USA.gov is the U.S. government's official web portal to all federal, state and local government web resources and services.